NOZ8AG ENGM-LEMG

Flight info

Callsign NOZ8AG
Flight time N/A
Altitude 36000
Route VIPPA DCT UPGAS DCT TIPAN DCT EZTIM UM185 DIGSU N866 GASGU/N0457F370 N866 SAM/N0455F360 N63 LELNA/N0456F370 DCT NOVAN DCT DELOG DCT CRISA N864 MOCEQ DCT VULPE
Aircraft B738/M-SDE2E3FGHIRWXY/LB1

Departure

Time 2026-05-07 11:12
Airport Oslo-Gardermoen International Airport (ENGM)

Arrival

Time N/A
Airport Málaga-Costa del Sol Airport (LEMG)
Time Latitude Longitude Altitude Speed Heading
2026-05-07 10:39 60.19631 11.09954 684 ft 0 kts 106°
2026-05-07 11:02 60.19633 11.09940 676 ft 4 kts 106°
2026-05-07 11:02 60.19641 11.09888 678 ft 4 kts 106°
2026-05-07 11:02 60.19644 11.09863 682 ft 1 kts 106°
2026-05-07 11:06 60.19652 11.09881 679 ft 4 kts 29°
2026-05-07 11:06 60.19720 11.09816 683 ft 18 kts 334°
2026-05-07 11:06 60.19854 11.09843 677 ft 20 kts 14°
2026-05-07 11:07 60.19982 11.09877 682 ft 19 kts 321°
2026-05-07 11:07 60.20025 11.09633 682 ft 18 kts 286°
2026-05-07 11:07 60.20061 11.09390 680 ft 18 kts 287°
2026-05-07 11:07 60.20094 11.09156 679 ft 17 kts 286°
2026-05-07 11:08 60.20128 11.08932 679 ft 17 kts 308°
2026-05-07 11:08 60.20235 11.08934 678 ft 16 kts 17°
2026-05-07 11:08 60.20359 11.09006 681 ft 22 kts 15°
2026-05-07 11:08 60.20508 11.09093 681 ft 22 kts 15°
2026-05-07 11:09 60.20670 11.09188 682 ft 28 kts 17°
2026-05-07 11:09 60.20852 11.09293 683 ft 28 kts 15°
2026-05-07 11:09 60.21031 11.09395 685 ft 26 kts 16°
2026-05-07 11:09 60.21200 11.09484 683 ft 24 kts 14°
2026-05-07 11:10 60.21347 11.09575 684 ft 1 kts 18°
2026-05-07 11:10 60.21407 11.09611 686 ft 19 kts 15°
2026-05-07 11:10 60.21546 11.09499 680 ft 26 kts 292°
2026-05-07 11:11 60.21557 11.09161 679 ft 24 kts 236°
2026-05-07 11:11 60.21531 11.09124 681 ft 0 kts 190°
2026-05-07 11:11 60.21474 11.09094 683 ft 39 kts 197°
2026-05-07 11:12 60.20921 11.08772 679 ft 124 kts 196°
2026-05-07 11:12 60.19873 11.08102 778 ft 185 kts 198°
2026-05-07 11:12 60.18558 11.07203 1420 ft 212 kts 201°
2026-05-07 11:12 60.17166 11.06040 2357 ft 217 kts 201°
2026-05-07 11:13 60.15776 11.04663 2874 ft 230 kts 224°
2026-05-07 11:13 60.15034 11.01851 3479 ft 232 kts 256°
2026-05-07 11:13 60.14577 10.98710 4096 ft 236 kts 251°
2026-05-07 11:13 60.14003 10.95600 4727 ft 239 kts 249°
2026-05-07 11:14 60.13373 10.92511 5358 ft 239 kts 248°
2026-05-07 11:14 60.12630 10.89511 5941 ft 243 kts 232°
2026-05-07 11:14 60.11258 10.87553 6552 ft 245 kts 206°
2026-05-07 11:14 60.09691 10.86167 7119 ft 248 kts 205°
2026-05-07 11:15 60.08098 10.84781 7689 ft 250 kts 205°
2026-05-07 11:15 60.06496 10.83373 8259 ft 252 kts 205°
2026-05-07 11:15 60.04883 10.81939 8793 ft 256 kts 206°
2026-05-07 11:15 60.03263 10.80480 9229 ft 266 kts 206°
2026-05-07 11:16 60.01526 10.78901 9574 ft 281 kts 207°
2026-05-07 11:16 59.99729 10.77261 10280 ft 285 kts 207°
2026-05-07 11:16 59.97869 10.75554 10656 ft 305 kts 207°
2026-05-07 11:16 59.95869 10.73709 10850 ft 328 kts 207°
2026-05-07 11:17 59.94435 10.72387 10984 ft 343 kts 207°
2026-05-07 11:17 59.92221 10.70349 11421 ft 355 kts 207°
2026-05-07 11:17 59.89990 10.68304 12112 ft 359 kts 207°
2026-05-07 11:17 59.87683 10.66192 12905 ft 361 kts 208°
2026-05-07 11:18 59.85422 10.64123 13648 ft 364 kts 208°
2026-05-07 11:18 59.83113 10.62010 14315 ft 367 kts 208°
2026-05-07 11:18 59.80780 10.59877 14981 ft 369 kts 208°
2026-05-07 11:18 59.78443 10.57743 15645 ft 372 kts 208°
2026-05-07 11:19 59.76083 10.55591 16301 ft 374 kts 208°
2026-05-07 11:19 59.73706 10.53425 16918 ft 377 kts 208°
2026-05-07 11:19 59.71314 10.51251 17560 ft 380 kts 209°
2026-05-07 11:19 59.68902 10.49060 18164 ft 383 kts 209°
2026-05-07 11:20 59.66471 10.46856 18728 ft 385 kts 209°
2026-05-07 11:20 59.64022 10.44640 19274 ft 388 kts 209°
2026-05-07 11:20 59.61550 10.42407 19792 ft 391 kts 209°
2026-05-07 11:20 59.59036 10.40291 20298 ft 397 kts 204°
2026-05-07 11:21 59.56327 10.38933 20789 ft 406 kts 195°
2026-05-07 11:21 59.53524 10.38012 21292 ft 409 kts 195°
2026-05-07 11:21 59.50704 10.37116 21738 ft 413 kts 195°
2026-05-07 11:21 59.47853 10.36205 22194 ft 416 kts 195°
2026-05-07 11:22 59.44987 10.35272 22625 ft 419 kts 195°
2026-05-07 11:22 59.42102 10.34320 23090 ft 421 kts 195°
2026-05-07 11:22 59.39206 10.33354 23544 ft 424 kts 195°
2026-05-07 11:22 59.36286 10.32377 23925 ft 427 kts 196°
2026-05-07 11:23 59.33380 10.31403 24277 ft 430 kts 196°
2026-05-07 11:23 59.30419 10.30413 24636 ft 432 kts 196°
2026-05-07 11:23 59.27446 10.29422 24974 ft 435 kts 196°
2026-05-07 11:23 59.24450 10.28425 25302 ft 438 kts 196°
2026-05-07 11:24 59.21434 10.27423 25629 ft 441 kts 196°
2026-05-07 11:24 59.18404 10.26418 25892 ft 444 kts 195°
2026-05-07 11:24 59.15333 10.25543 26186 ft 450 kts 192°
2026-05-07 11:24 59.12194 10.25055 26497 ft 454 kts 189°
2026-05-07 11:25 59.09026 10.24722 26817 ft 457 kts 189°
2026-05-07 11:25 59.05842 10.24392 27119 ft 459 kts 189°
2026-05-07 11:25 59.02645 10.24003 27410 ft 461 kts 190°
2026-05-07 11:25 58.99431 10.23571 27666 ft 464 kts 191°
2026-05-07 11:26 58.96269 10.22581 27905 ft 457 kts 202°
2026-05-07 11:26 58.93330 10.20406 28197 ft 450 kts 212°
2026-05-07 11:26 58.90659 10.17336 28431 ft 443 kts 222°
2026-05-07 11:26 58.88285 10.13568 28716 ft 442 kts 225°
2026-05-07 11:27 58.85943 10.09736 29078 ft 442 kts 225°
2026-05-07 11:27 58.83597 10.05905 29510 ft 440 kts 225°
2026-05-07 11:27 58.81260 10.02114 29933 ft 439 kts 225°
2026-05-07 11:27 58.78914 9.98336 30288 ft 439 kts 225°
2026-05-07 11:28 58.76595 9.94624 30573 ft 439 kts 225°
2026-05-07 11:28 58.74244 9.90878 30904 ft 438 kts 225°
2026-05-07 11:28 58.71892 9.87144 31241 ft 437 kts 225°
2026-05-07 11:28 58.69550 9.83437 31542 ft 436 kts 225°
2026-05-07 11:29 58.67206 9.79733 31839 ft 436 kts 225°
2026-05-07 11:29 58.64861 9.76035 32090 ft 436 kts 225°
2026-05-07 11:29 58.62513 9.72336 32274 ft 438 kts 225°
2026-05-07 11:29 58.60152 9.68623 32497 ft 439 kts 224°
2026-05-07 11:30 58.57794 9.64925 32845 ft 437 kts 224°
2026-05-07 11:30 58.55443 9.61245 33194 ft 435 kts 225°
2026-05-07 11:30 58.53098 9.57582 33480 ft 435 kts 225°
2026-05-07 11:30 58.50754 9.53924 33727 ft 435 kts 225°
2026-05-07 11:31 58.48409 9.50269 33995 ft 435 kts 225°
2026-05-07 11:31 58.46068 9.46629 34275 ft 433 kts 224°
2026-05-07 11:31 58.43730 9.43000 34496 ft 433 kts 224°
2026-05-07 11:31 58.41388 9.39371 34685 ft 434 kts 224°
2026-05-07 11:32 58.36733 9.32175 35127 ft 433 kts 224°
2026-05-07 11:32 58.34394 9.28571 35342 ft 432 kts 224°
2026-05-07 11:32 58.32049 9.24963 35530 ft 433 kts 224°
2026-05-07 11:33 58.29708 9.21365 35702 ft 433 kts 224°
2026-05-07 11:33 58.27359 9.17763 35910 ft 433 kts 223°
2026-05-07 11:33 58.25019 9.14182 36103 ft 432 kts 223°
2026-05-07 11:34 58.20302 9.06978 36123 ft 436 kts 223°
2026-05-07 11:34 58.15592 8.99815 36078 ft 432 kts 223°